Regional Weather Roundup
Issued by NWS

Home | Current Version | Previous Version | Text Only | Print | Product List | Glossary Off
Versions: 1 2 3 4 5 6 7 8 9 10 11 12 13 14 15 16 17 18 19 20 21 22 23 24 25 26 27 28 29 30 31 32 33 34 35 36 37 38 39 40 41 42 43 44 45 46 47 48 49 50

000
ASUS45 KTFX 130419
RWRMT
MONTANA HOURLY WEATHER ROUNDUP
NATIONAL WEATHER SERVICE GREAT FALLS MT
1019 PM MDT SAT JUL 12 2014

NOTE: "FAIR" INDICATES FEW OR NO CLOUDS BELOW 12000 FEET WITH NO
SIGNIFICANT WEATHER AND/OR OBSTRUCTIONS TO VISIBILITY.

* THESE STATIONS ARE NOT UNDER NWS QUALITY CONTROL. THEY DO NOT
   REPORT WEATHER SUCH AS PRECIPITATION OR FOG.

MTZ001>007-043-130500-
WEST OF THE DIVIDE
CITY           SKY/WX    TMP DP  RH WIND       PRES   REMARKS
KALISPELL      PTCLDY    70  55  59 SE5       30.14R
MISSOULA       CLEAR     81  39  22 NW10      30.16R
BUTTE          PTCLDY    70  50  49 S5        30.33R
MULLAN PASS    PTCLDY    68  43  40 NW6       30.35S
* ESSEX        N/A       66  49  54 SW1        N/A
* LINCOLN      N/A       76  41  29 N3G11      N/A
* LOOKOUT PASS N/A       68  50  53 VRB2       N/A
* POLSON       N/A       69  38  32 E1         N/A
* RONAN APT    PTCLDY    73  54  51 N/A        N/A
* SEELEY LAKE  N/A       73  46  38 SE2G9      N/A
* THOMP F APT  PTCLDY    66  45  47 N6G12      N/A
* YAAK HILL    N/A       74  50  43 N/A        N/A
$$

MTZ008-052>055-130500-
SOUTHWEST MONTANA
CITY           SKY/WX    TMP DP  RH WIND       PRES   REMARKS
W YELLOWSTONE  PTCLDY    57  55  93 SW3       30.42R
* THREE FORKS  CLOUDY    75  52  45 N/A        N/A
* BOULDER HILL N/A       69  45  42 S3         N/A
* MONIDA PASS  N/A       62  46  56 SW3        N/A
* RAYNOLDS PAS N/A       56  27  33 E3         N/A
* WHITEHALL    N/A       75  59  58 N5G10      N/A
* WISE RIVER   N/A       67  55  66 SW6        N/A
$$

MTZ009>010-012-014-046-048-049-054-130500-
EAST SLOPES AND CENTRAL MONTANA
CITY           SKY/WX    TMP DP  RH WIND       PRES   REMARKS
CUT BANK       CLEAR     72  50  46 NE12      30.24R
GREAT FALLS    CLEAR     68  43  40 CALM      30.21R
HELENA         PTCLDY    79  48  34 CALM      30.20R
* CONRAD       CLEAR     72  55  55 N/A        N/A
* DEARBORN     N/A       81  40  23 NE8        N/A
* MONARCH      N/A       62  28  28 SE2        N/A
* PENDROY      N/A       70  46  42 E5         N/A
* ROGERS PASS  N/A       65  36  34 NW3        N/A
* SAINT MARY   N/A       68  50  53 E2         N/A
* SWEET GRASS  N/A       68  53  59 NE8        N/A
* WHITE SULPH  N/A       71  43  37 NE6        N/A
$$

MTZ011-013-016-021-035-040-045-047-050-051-130500-
NORTH CENTRAL MONTANA
CITY           SKY/WX    TMP DP  RH WIND       PRES   REMARKS
LEWISTOWN      PTCLDY    70  46  42 SE8       30.26R
* FORT BENTON  CLEAR     75  45  34 N6        30.19R
* CHESTER      N/A       76  46  35 NE6        N/A
* DENTON       N/A       68  42  39 NE5        N/A
* GEYSER       N/A       63  37  38 SW2        N/A
* JUDITH GAP   N/A       68  41  38 N/A        N/A
* LOMA         N/A       73  46  38 NE9        N/A
$$

MTZ017>020-022>027-061-062-130500-
NORTHEAST MONTANA
CITY           SKY/WX    TMP DP  RH WIND       PRES   REMARKS
GLENDIVE       CLEAR     66  48  52 NW9       30.19R
JORDAN         CLEAR     64  43  47 N5        30.19R
SIDNEY         CLEAR     63  48  58 W8        30.15R
WOLF POINT     CLEAR     64  48  56 NW6       30.14R
* BEAVER HILL  N/A       68  47  47 NW4        N/A
* CIRCLE       N/A       71  51  49 N/A        N/A
* LINDSAY DVD  N/A       64  49  58 NW8        N/A
* NAVAJO       N/A       64  54  70 W10        N/A
$$

MTZ028>042-056>058-130500-
SOUTHCENTRAL AND SOUTHEAST MONTANA
CITY           SKY/WX    TMP DP  RH WIND       PRES   REMARKS
BAKER          CLEAR     64  54  70 CALM      30.20R
BILLINGS       MOCLDY    81  43  26 S7        30.22R
MILES CITY     PTCLDY    73  46  38 N3        30.18R
* LAUREL APT   PTCLDY    73  45  37 N/A        N/A
* ROUNDUP APT  PTCLDY    73  45  37 N/A        N/A
* ALZADA       N/A       69  47  46 N6         N/A
* HYSHAM       N/A       71  41  34 E4         N/A
* LAME DEER    N/A       68  42  39 NE8        N/A
* REED POINT   N/A       74  48  40 N/A        N/A
* ROSCOE HILL  N/A       66  43  43 SE8        N/A
$$

REGIONAL REPORTS...DAKOTAS
CITY           SKY/WX    TMP DP  RH WIND       PRES   REMARKS
WILLISTON      CLEAR     66  54  65 NW9       30.11R
DICKINSON      CLEAR     64  52  65 NW7       30.13R
CROSBY         N/A       59  57  93 NW5       30.10R
TIOGA          CLEAR     57  57 100 NW6       30.13R
WATFORD CITY   FAIR      63  55  75 CALM      30.10R
BISMARCK       FAIR      70  54  57 W6        30.05R
GRAND FORKS    CLEAR     55  54  96 W5        29.95R
FARGO          MOCLDY    64  55  73 N3        29.96R
BUFFALO SD     CLEAR     66  52  61 NW10      30.12R
RAPID CITY     PTCLDY    66  63  90 NW6       30.19R
$$

REGIONAL REPORTS...WYOMING/IDAHO/WASHINGTON
CITY           SKY/WX    TMP DP  RH WIND       PRES   REMARKS
GILLETTE       PTCLDY    61  52  72 SW3       30.28R
SHERIDAN       MOCLDY    68  55  63 W3        30.26R
CODY           CLOUDY    70  54  57 SW9       30.31F
YELLOWSTONE LA CLOUDY    52  50  93 CALM      30.54R
SALMON         PTCLDY    79  46  31 CALM      30.17R
MULLAN PASS    PTCLDY    68  43  40 NW6       30.35S
SAND POINT     CLEAR     68  55  63 CALM      30.09R
SPOKANE        FAIR      86  39  19 N3        30.10S
$$

REGIONAL REPORTS...ALBERTA
CITY           SKY/WX    TMP DP  RH WIND       PRES   REMARKS
CALGARY        FAIR      68  50  53 E3        30.25R
LETHBRIDGE     N/A       68  61  78 SE7       30.22R
MEDICINE HAT   CLEAR     73  50  44 E9        30.19R
EDMONTON       FAIR      70  61  73 E12       30.16R
WATERTON GATE  N/A       61  57  87 SW1        N/A
CARDSTON       N/A       68  63  84 SE1        N/A
MILK RIVER     N/A       64  54  70 NE9        N/A
$$

REGIONAL REPORTS...SASKATCHEWAN
CITY           SKY/WX    TMP DP  RH WIND       PRES   REMARKS
SWIFT CURRENT  CLEAR     61  54  78 N8        30.17R
REGINA         FAIR      55  48  77 NW6       30.11R
VAL MARIE      N/A       63  55  75 NE3        N/A
ASSINIBOIA     N/A       59  54  84 N8         N/A
CORONACH       N/A       57  52  83 NW3        N/A

$$



USA.gov is the U.S. government's official web portal to all federal, state and local government web resources and services.